Goodland, KS

3:22 AM MST on December 13, 2017 (GMT -0700)
Renner-Goodland Municipal

Weather History for KGLD - December, 2013

Change the Weather History Date:

Friday, December 27, 2013

  Actual Average Record
Temperature  
Mean Temperature 44 °F 29 °F  
Max Temperature 63 °F 42 °F 74 °F (1980)
Min Temperature 25 °F 17 °F -11 °F (1916)
Degree Days  
Heating Degree Days 21 36  
Month to date heating degree days 975 948  
Since 1 July heating degree days 2248 2267  
Cooling Degree Days 0 0  
Month to date cooling degree days 0 0  
Year to date cooling degree days 1181 941  
Moisture  
Dew Point 12 °F    
Average Humidity 36    
Maximum Humidity 58    
Minimum Humidity 13    
Precipitation  
Precipitation 0.00 in 0.01 in 0.49 in (1982)
Month to date precipitation 0.05 0.41  
Year to date precipitation 16.74 19.61  
Snow  
Snow 0.00 in 0.20 in - ()
Month to date snowfall 2.5 4.8  
Since 1 July snowfall 6.8 12.0  
Snow Depth 0.00 in    
Sea Level Pressure  
Sea Level Pressure 30.21 in    
Wind  
Wind Speed 13 mph (SW)    
Max Wind Speed 20 mph    
Max Gust Speed 23 mph    
Visibility 10 miles    
Events      
T = Trace of Precipitation, MM = Missing Value Source: NWS Daily Summary

Daily Weather History Graph

Daily Weather History Graph

Search for Another Location

Airport or City:

Trip Planner

Search our weather history database for the weather conditions in past years. The results will help you decide how hot, cold, wet, or windy it might be!

Date:

Astronomy

Dec. 27, 2013 Rise Set
Actual Time 7:05 AM MST 4:30 PM MST
Civil Twilight 6:35 AM MST 5:00 PM MST
Nautical Twilight 6:01 AM MST 5:34 PM MST
Astronomical Twilight 5:29 AM MST 6:07 PM MST
Moon 1:40 AM MST (12/27) 12:41 PM MST (12/27)
Length of Visible Light 10h 25m
Length of Day
9h 24m
Waning Crescent, 28% of the Moon is Illuminated
Dec 27
Waning Crescent
Jan 1
New
Jan 7
First Quarter
Jan 15
Full
Jan 23
Last Quarter

Hourly Weather History & Observations

Time (MST) Temp. Windchill Dew Point Humidity Pressure Visibility Wind Dir Wind Speed Gust Speed Precip Events Conditions
12:53 AM 28.0 °F 19.3 °F 15.1 °F 58% 30.30 in 10.0 mi WSW 9.2 mph - N/A   Clear
1:53 AM 28.9 °F 19.2 °F 15.1 °F 56% 30.30 in 10.0 mi SW 11.5 mph - N/A   Clear
2:53 AM 30.9 °F 20.7 °F 15.1 °F 52% 30.29 in 10.0 mi WSW 13.8 mph - N/A   Clear
3:53 AM 34.0 °F 23.8 °F 16.0 °F 48% 30.27 in 10.0 mi SW 16.1 mph - N/A   Clear
4:53 AM 34.0 °F 24.6 °F 16.0 °F 48% 30.29 in 10.0 mi WSW 13.8 mph - N/A   Clear
5:53 AM 32.0 °F 21.6 °F 14.0 °F 48% 30.32 in 10.0 mi WSW 15.0 mph - N/A   Clear
6:53 AM 32.0 °F 21.6 °F 12.9 °F 45% 30.33 in 10.0 mi WSW 15.0 mph - N/A   Clear
7:53 AM 37.9 °F 28.5 °F 12.0 °F 35% 30.30 in 10.0 mi WSW 17.3 mph - N/A   Clear
8:53 AM 46.0 °F 40.6 °F 12.9 °F 26% 30.31 in 10.0 mi West 11.5 mph - N/A   Clear
9:53 AM 54.0 °F - 12.0 °F 19% 30.29 in 10.0 mi WSW 16.1 mph - N/A   Clear
10:53 AM 59.0 °F - 10.0 °F 14% 30.26 in 10.0 mi WSW 15.0 mph - N/A   Clear
11:53 AM 61.0 °F - 10.0 °F 13% 30.23 in 10.0 mi WSW 12.7 mph - N/A   Clear
12:53 PM 63.0 °F - 10.9 °F 13% 30.19 in 10.0 mi SW 15.0 mph - N/A   Clear
1:53 PM 63.0 °F - 12.9 °F 14% 30.16 in 10.0 mi SW 12.7 mph - N/A   Clear
2:53 PM 62.1 °F - 12.9 °F 15% 30.15 in 10.0 mi SW 10.4 mph - N/A   Clear
3:53 PM 57.9 °F - 12.9 °F 17% 30.15 in 10.0 mi SSW 9.2 mph - N/A   Clear
4:53 PM 50.0 °F - 10.9 °F 21% 30.17 in 10.0 mi SSW 9.2 mph - N/A   Clear
5:53 PM 48.9 °F - 10.9 °F 22% 30.17 in 10.0 mi SW 13.8 mph - N/A   Clear
6:53 PM 46.0 °F 39.6 °F 10.9 °F 24% 30.18 in 10.0 mi SW 15.0 mph - N/A   Clear
7:53 PM 41.0 °F 33.9 °F 10.9 °F 29% 30.17 in 10.0 mi SW 12.7 mph - N/A   Clear
8:53 PM 39.9 °F 32.5 °F 10.9 °F 31% 30.13 in 10.0 mi SW 12.7 mph - N/A   Clear
9:53 PM 36.0 °F 28.0 °F 10.0 °F 34% 30.10 in 10.0 mi WSW 11.5 mph - N/A   Clear
10:53 PM 39.9 °F 32.9 °F 12.0 °F 32% 30.04 in 10.0 mi SW 11.5 mph - N/A   Clear
11:53 PM 34.0 °F 25.5 °F 10.9 °F 38% 30.03 in 10.0 mi WSW 11.5 mph - N/A   Clear